Deelen, Netherlands

9:55 AM CEST on May 27, 2017 (GMT +0200)
Deelen Air Base

Weather History for EHDL - October, 2013

Change the Weather History Date:

Wednesday, October 2, 2013

  Actual Average Record
Temperature  
Mean Temperature 49 °F -  
Max Temperature 59 °F 55 °F 77 °F (2011)
Min Temperature 39 °F 44 °F 39 °F (2013)
Degree Days  
Heating Degree Days 16    
Moisture  
Dew Point 39 °F    
Average Humidity 67    
Maximum Humidity 87    
Minimum Humidity 48    
Precipitation  
Precipitation 0.00 in - - ()
Sea Level Pressure  
Sea Level Pressure 30.05 in    
Wind  
Wind Speed 9 mph ()    
Max Wind Speed 18 mph    
Max Gust Speed -    
Visibility 6.2 miles    
Events      
Averages and records for this station are not official NWS values.
T = Trace of Precipitation, MM = Missing Value Source: Averaged Metar Reports

Daily Weather History Graph

Daily Weather History Graph

Search for Another Location

Airport or City:

Trip Planner

Search our weather history database for the weather conditions in past years. The results will help you decide how hot, cold, wet, or windy it might be!

Date:

Astronomy

Oct. 02, 2013 Rise Set
Actual Time 7:39 AM CEST 7:11 PM CEST
Civil Twilight 7:05 AM CEST 7:45 PM CEST
Nautical Twilight 6:26 AM CEST 8:24 PM CEST
Astronomical Twilight 5:45 AM CEST 9:04 PM CEST
Moon 4:40 AM CEST (10/2) 5:50 PM CEST (10/2)
Length of Visible Light 12h 39m
Length of Day
11h 32m
Waning Crescent, 7% of the Moon is Illuminated
Oct 2
Waning Crescent
Oct 5
New
Oct 12
First Quarter
Oct 19
Full
Oct 27
Last Quarter

Hourly Weather History & Observations

Time (CEST) Temp. Windchill Dew Point Humidity Pressure Visibility Wind Dir Wind Speed Gust Speed Precip Events Conditions
12:25 AM 46.4 °F 41.9 °F 39.2 °F 76% 30.01 in 6.2 mi East 9.2 mph - N/A   Unknown
12:55 AM 44.6 °F 40.7 °F 39.2 °F 81% 30.01 in 6.2 mi East 6.9 mph - N/A   Unknown
1:25 AM 44.6 °F 40.7 °F 39.2 °F 81% 30.04 in 6.2 mi East 6.9 mph - N/A   Unknown
1:55 AM 44.6 °F 40.2 °F 37.4 °F 76% 30.04 in 6.2 mi East 8.1 mph - N/A   Unknown
2:25 AM 42.8 °F 38.6 °F 37.4 °F 81% 30.04 in 6.2 mi East 6.9 mph - N/A   Unknown
2:55 AM 42.8 °F 38.6 °F 37.4 °F 81% 30.04 in 6.2 mi East 6.9 mph - N/A   Unknown
3:25 AM 42.8 °F 39.3 °F 37.4 °F 81% 30.04 in 6.2 mi East 5.8 mph - N/A   Partly Cloudy
3:55 AM 41.0 °F 37.1 °F 37.4 °F 87% 30.04 in 6.2 mi ESE 5.8 mph - N/A   Unknown
4:25 AM 41.0 °F 37.1 °F 37.4 °F 87% 30.04 in 6.2 mi East 5.8 mph - N/A   Partly Cloudy
4:55 AM 41.0 °F 36.4 °F 35.6 °F 81% 30.04 in 6.2 mi East 6.9 mph - N/A   Unknown
5:25 AM 41.0 °F 35.8 °F 35.6 °F 81% 30.04 in 6.2 mi East 8.1 mph - N/A   Unknown
5:55 AM 41.0 °F 35.8 °F 35.6 °F 81% 30.04 in 6.2 mi East 8.1 mph - N/A   Unknown
6:25 AM 41.0 °F 35.8 °F 35.6 °F 81% 30.04 in 6.2 mi East 8.1 mph - N/A   Unknown
6:55 AM 41.0 °F 35.2 °F 35.6 °F 81% 30.04 in 6.2 mi East 9.2 mph - N/A   Unknown
7:25 AM 39.2 °F 33.6 °F 35.6 °F 87% 30.04 in 6.2 mi East 8.1 mph - N/A   Unknown
7:55 AM 39.2 °F 33.0 °F 35.6 °F 87% 30.04 in 6.2 mi East 9.2 mph - N/A   Partly Cloudy
8:25 AM 41.0 °F 35.8 °F 35.6 °F 81% 30.04 in 6.2 mi East 8.1 mph - N/A   Unknown
8:55 AM 42.8 °F 37.5 °F 37.4 °F 81% 30.06 in 6.2 mi East 9.2 mph - N/A   Unknown
9:25 AM 44.6 °F 39.7 °F 37.4 °F 76% 30.06 in 6.2 mi East 9.2 mph - N/A   Partly Cloudy
9:55 AM 46.4 °F 41.1 °F 37.4 °F 71% 30.06 in 6.2 mi East 11.5 mph - N/A   Partly Cloudy
10:25 AM 48.2 °F - 39.2 °F 71% 30.06 in 6.2 mi East 13.8 mph - N/A   Unknown
10:55 AM 51.8 °F - 39.2 °F 62% 30.06 in 6.2 mi ESE 13.8 mph - N/A   Scattered Clouds
11:25 AM 51.8 °F - 39.2 °F 62% 30.06 in 6.2 mi ESE 16.1 mph - N/A   Partly Cloudy
11:55 AM 53.6 °F - 39.2 °F 58% 30.06 in 6.2 mi ESE 16.1 mph - N/A   Scattered Clouds
12:05 PM 55.4 °F - 39.2 °F 54% 30.06 in 6.2 mi ESE 15.0 mph - N/A   Mostly Cloudy
12:25 PM 57.2 °F - 39.2 °F 51% 30.06 in 6.2 mi ESE 13.8 mph - N/A   Mostly Cloudy
12:55 PM 57.2 °F - 37.4 °F 48% 30.06 in 6.2 mi ESE 17.3 mph - N/A   Partly Cloudy
1:25 PM 57.2 °F - 39.2 °F 51% 30.06 in 6.2 mi SE 16.1 mph - N/A   Scattered Clouds
1:55 PM 59.0 °F - 39.2 °F 48% 30.06 in 6.2 mi ESE 18.4 mph - N/A   Mostly Cloudy
2:25 PM 57.2 °F - 39.2 °F 51% 30.06 in 6.2 mi ESE 18.4 mph - N/A   Partly Cloudy
2:55 PM 57.2 °F - 39.2 °F 51% 30.06 in 6.2 mi East 16.1 mph - N/A   Mostly Cloudy
3:25 PM 57.2 °F - 39.2 °F 51% 30.06 in 6.2 mi ESE 17.3 mph - N/A   Overcast
3:46 PM 59.0 °F - 41.0 °F 51% 30.06 in 6.2 mi ESE 16.1 mph - N/A   Mostly Cloudy
3:55 PM 59.0 °F - 39.2 °F 48% 30.06 in 6.2 mi ESE 16.1 mph - N/A   Mostly Cloudy
4:25 PM 59.0 °F - 39.2 °F 48% 30.06 in 6.2 mi ESE 16.1 mph - N/A   Mostly Cloudy
4:55 PM 59.0 °F - 39.2 °F 48% 30.04 in 6.2 mi ESE 12.7 mph - N/A   Overcast
5:25 PM 59.0 °F - 39.2 °F 48% 30.04 in 6.2 mi ESE 11.5 mph - N/A   Scattered Clouds
5:55 PM 57.2 °F - 39.2 °F 51% 30.04 in 6.2 mi ESE 10.4 mph - N/A   Overcast
6:25 PM 59.0 °F - 39.2 °F 48% 30.04 in 6.2 mi ESE 12.7 mph - N/A   Overcast
6:26 PM 57.2 °F - 39.2 °F 51% 30.04 in 6.2 mi ESE 12.7 mph - N/A   Overcast
6:55 PM 55.4 °F - 39.2 °F 54% 30.06 in 6.2 mi East 6.9 mph - N/A   Overcast
7:25 PM 53.6 °F - 39.2 °F 58% 30.06 in 6.2 mi East 8.1 mph - N/A   Mostly Cloudy
7:55 PM 51.8 °F - 41.0 °F 67% 30.06 in 6.2 mi East 8.1 mph - N/A   Unknown
8:25 PM 51.8 °F - 39.2 °F 62% 30.06 in 6.2 mi East 9.2 mph - N/A   Unknown
8:55 PM 50.0 °F - 39.2 °F 66% 30.06 in 6.2 mi East 9.2 mph - N/A   Unknown
9:25 PM 50.0 °F - 41.0 °F 71% 30.06 in 6.2 mi East 10.4 mph - N/A   Scattered Clouds
9:55 PM 50.0 °F - 41.0 °F 71% 30.09 in 6.2 mi ESE 8.1 mph - N/A   Unknown
10:25 PM 50.0 °F - 41.0 °F 71% 30.09 in 6.2 mi East 9.2 mph - N/A   Unknown
10:31 PM 50.0 °F - 41.0 °F 71% 30.09 in 6.2 mi East 9.2 mph - N/A   Unknown
10:55 PM 50.0 °F - 41.0 °F 71% 30.09 in 6.2 mi ESE 9.2 mph - N/A   Mostly Cloudy
11:25 PM 50.0 °F - 39.2 °F 66% 30.09 in 6.2 mi ESE 10.4 mph - N/A   Mostly Cloudy
11:55 PM 50.0 °F - 39.2 °F 66% 30.09 in 6.2 mi ESE 11.5 mph - N/A   Scattered Clouds